Regional Weather Roundup
Issued by NWS

Home | Current Version | Previous Version | Graphics & Text | Print | Product List | Glossary On
Versions: 1 2 3 4 5 6 7 8 9 10 11 12 13 14 15 16 17 18 19 20 21 22 23 24 25 26 27 28 29 30 31 32 33 34 35 36 37 38 39 40 41 42 43 44 45 46 47 48 49 50
000
ASUS43 KOAX 010510
RWRNE

WEATHER ROUNDUP FOR NEBRASKA
NATIONAL WEATHER SERVICE OMAHA NE
1100 PM CST SAT FEB 28 2015

NOTES: SATELLITE DATA IS BEING USED TO AUGMENT CLOUD COVER ABOVE
       12000 FEET.
       "FAIR" INDICATES FEW OR NO CLOUDS BELOW 12,000 FEET WITH NO
       SIGNIFICANT WEATHER AND/OR OBSTRUCTIONS TO VISIBILITY.

  * THESE STATIONS DO NOT REPORT WEATHER SUCH AS RAIN...SNOW OR FOG.

NEZ001>004-019>022-054>056-010600-
NEBRASKA PANHANDLE

CITY           SKY/WX    TMP DP  RH WIND       PRES   REMARKS
SCOTTSBLUFF    MOCLDY    21  13  71 E8        30.09R WCI  11
ALLIANCE       PTCLDY    17  12  80 NE3       30.09S
CHADRON        CLOUDY    21  10  62 NE12      30.16R WCI   9
KIMBALL        CLOUDY    20  16  81 SE3       30.00F
SIDNEY         CLOUDY    20  14  77 CALM      30.06F
$$

NEZ057>060-069>072-079>082-010600-
SOUTHWEST NEBRASKA

CITY           SKY/WX    TMP DP  RH WIND       PRES   REMARKS
NORTH PLATTE   MOCLDY    16  10  77 S3        30.19S
IMPERIAL         N/A     15  10  80 S6        30.17R WCI   6
LEXINGTON      PTCLDY    16  13  87 S7        30.23F WCI   7
MCCOOK         CLOUDY    24  15  68 S5        30.21F WCI  18
OGALLALA       CLOUDY    19  12  74 CALM      30.15F
$$

NEZ005>010-023>029-035>040-094-010600-
NORTH CENTRAL NEBRASKA

CITY           SKY/WX    TMP DP  RH WIND       PRES   REMARKS
VALENTINE      MOCLDY    20   5  52 NE7       30.19R WCI  11
AINSWORTH      PTCLDY    17   6  60 N5        30.19R WCI  10
BROKEN BOW     PTCLDY    17  10  74 SW5       30.21R WCI  10
O`NEILL        PTCLDY    18  11  74 CALM      30.21S
ORD            CLEAR     10   5  80 CALM      30.24R
THEDFORD       PTCLDY    19  12  76 CALM      30.18R
$$

NEZ041-046>049-061>064-073>077-083>087-010600-
SOUTH CENTRAL NEBRASKA

CITY           SKY/WX    TMP DP  RH WIND       PRES   REMARKS
GRAND ISLAND   CLEAR     15  11  83 S8        30.28F WCI   4
AURORA         PTCLDY    16  12  86 S7        30.28F WCI   6
HASTINGS       FAIR      15  12  88 S6        30.26F WCI   6
HEBRON         FLURRIES  20  15  81 CALM      30.34S
HOLDREGE       PTCLDY    14  11  89 S5        30.26R WCI   6
KEARNEY *      CLEAR     16  12  86 S9        30.26R WCI   4
YORK           PTCLDY    16  14  93 S8        30.30S WCI   5
$$

NEZ011>018-030>034-042>045-010600-
NORTHEAST NEBRASKA

CITY           SKY/WX    TMP DP  RH WIND       PRES   REMARKS
NORFOLK        CLEAR     17  12  80 S9        30.27S WCI   6
ALBION         PTCLDY    15  10  81 S5        30.26F WCI   7
BLAIR          CLOUDY    23  18  80 S10       30.31F WCI  12
COLUMBUS *     PTCLDY    18   7  62 S7        30.31S WCI   8
FREMONT        PTCLDY    21  17  83 S6        30.33S WCI  14
WAYNE          CLEAR     15  11  83 S9        30.29S WCI   4
$$

NEZ050>053-065>068-078-088>093-010600-
SOUTHEAST NEBRASKA

CITY           SKY/WX    TMP DP  RH WIND       PRES   REMARKS
LINCOLN        CLOUDY    22  15  75 SW7       30.36S WCI  13
OMAHA EPPLEY   FLURRIES  23  17  78 S9        30.36F WCI  13
BEATRICE       CLOUDY    21  18  86 S5        30.35S WCI  15
FALLS CITY     MOCLDY    16  13  88 CALM      30.37F
NEBRASKA CITY  CLOUDY    22  17  81 S3        30.36S
PLATTSMOUTH    FLURRIES  22  15  75 S5        30.35F WCI  15
$$

NEZ044-045-051>053-067-010600-
OMAHA AREA

CITY           SKY/WX    TMP DP  RH WIND       PRES   REMARKS
OMAHA EPPLEY   FLURRIES  23  17  78 S9        30.36F WCI  13
BLAIR          CLOUDY    23  18  80 S10       30.31F WCI  12
FREMONT        PTCLDY    21  17  83 S6        30.33S WCI  14
MILLARD        FLURRIES  23  15  71 SW5       30.35F WCI  17
OFFUTT AFB     CLOUDY    23  18  80 S6        30.35F WCI  16
PLATTSMOUTH    FLURRIES  22  15  75 S5        30.35F WCI  15
WAHOO          CLOUDY    22  15  74 S7        30.34S WCI  14
$$


USA.gov is the U.S. government's official web portal to all federal, state and local government web resources and services.